IZ0QWM-13 Scandriglia IT current weather conditions

sailwx.info

Wind from 013

Air temperature 18.3° C
Dewpoint 5.2° C

Last reported at 2014-Oct-31 10:50 UTC.
Time now 2014-Oct-31 11:36 UTC

Location: N 42°10' E 012°47'.
View on Google Maps.

See reports from other nearby stations

  
Tides and Currents Weather Stations Pressure Air Temp Water Temp Dewpoint Dewpoint Depression Visibility Wind Speed Wind Dir Waves Ship Positions
date/time (UTC)wind fromknots sea level pressurealtimeterstation pressurevisibilityair tempwater tempwave heightnotes
2014-Oct-31 10:50 013 18.3
2014-Oct-31 10:40 037 17.8
2014-Oct-31 10:30 056 17.8
2014-Oct-31 10:20 056 1 gusting 5 20.0
2014-Oct-31 10:10 094 20.6
2014-Oct-31 10:00 094 20.0
2014-Oct-31 09:50 094 19.4
2014-Oct-31 09:40 094 20.0
2014-Oct-31 09:30 094 21.1
2014-Oct-31 09:19 094 18.3
2014-Oct-31 09:09 094 16.7
2014-Oct-31 08:59 094 16.7
2014-Oct-31 08:49 094 18.3
2014-Oct-31 08:39 094 15.0
2014-Oct-31 08:29 094 15.0
2014-Oct-31 08:19 094 14.4
2014-Oct-31 08:09 094 13.9
2014-Oct-31 07:59 094 13.3
2014-Oct-31 07:49 094 13.3
2014-Oct-31 07:36 094 12.2
2014-Oct-31 07:29 094 12.2
2014-Oct-31 07:18 094 11.1
2014-Oct-31 07:08 094 10.6
2014-Oct-31 06:58 094 10.0
2014-Oct-31 06:48 094 9.4
2014-Oct-31 06:38 094 9.4
2014-Oct-31 06:28 094 8.9
2014-Oct-31 06:18 143 8.9
2014-Oct-31 06:08 086 9.4
2014-Oct-31 05:58 086 9.4
2014-Oct-31 05:48 086 9.4
2014-Oct-31 05:38 167 9.4
2014-Oct-31 05:28 167 9.4
2014-Oct-31 05:18 167 9.4
2014-Oct-31 05:06 167 9.4
2014-Oct-31 04:58 167 9.4
2014-Oct-31 04:48 167 9.4
2014-Oct-31 04:36 167 8.9
2014-Oct-31 04:28 124 8.9
2014-Oct-31 04:18 124 8.9
2014-Oct-31 04:08 124 8.9
2014-Oct-31 03:58 124 8.3
2014-Oct-31 03:48 124 8.9
2014-Oct-31 03:38 124 8.9
2014-Oct-31 03:28 124 8.9
2014-Oct-31 03:18 124 8.9
2014-Oct-31 03:08 124 9.4
2014-Oct-31 02:58 138 2 gusting 2 9.4
2014-Oct-31 02:48 138 9.4
2014-Oct-31 02:38 138 9.4
2014-Oct-31 02:28 138 9.4
2014-Oct-31 02:18 138 10.0
2014-Oct-31 02:08 138 2 gusting 2 9.4
2014-Oct-31 01:58 138 9.4
2014-Oct-31 01:48 138 9.4
2014-Oct-31 01:38 049 10.0
2014-Oct-31 01:28 049 10.0
2014-Oct-31 01:18 049 2 gusting 2 10.0
2014-Oct-31 01:08 194 10.0
2014-Oct-31 00:58 158 10.0
2014-Oct-31 00:48 041 10.0
2014-Oct-31 00:38 041 10.0
2014-Oct-31 00:28 041 10.6
2014-Oct-31 00:18 062 11.1
2014-Oct-31 00:09 062 11.1
2014-Oct-30 23:58 062 11.1
2014-Oct-30 23:57 062 11.1
2014-Oct-30 23:48 066 11.1
2014-Oct-30 23:37 038 11.1
2014-Oct-30 23:27 038 11.1
2014-Oct-30 23:17 038 11.1
2014-Oct-30 23:07 052 11.1
2014-Oct-30 22:57 052 11.1
2014-Oct-30 22:47 052 11.1
2014-Oct-30 22:46 052 11.1
2014-Oct-30 22:37 052 11.1
2014-Oct-30 22:27 052 11.1
2014-Oct-30 22:17 052 11.1
2014-Oct-30 22:16 052 11.1
2014-Oct-30 22:07 032 10.6
2014-Oct-30 22:06 032 10.6
2014-Oct-30 21:56 077 10.6
2014-Oct-30 21:47 077 10.6
2014-Oct-30 21:37 077 10.6
2014-Oct-30 21:36 077 10.6
2014-Oct-30 21:27 165 10.6
2014-Oct-30 21:26 165 10.6
2014-Oct-30 21:17 165 10.6
2014-Oct-30 21:07 180 10.6
2014-Oct-30 21:06 180 11.1
2014-Oct-30 20:57 180 10.6
2014-Oct-30 20:47 180 10.6
2014-Oct-30 20:46 180 10.0
2014-Oct-30 20:37 180 10.0
2014-Oct-30 20:36 180 10.0
2014-Oct-30 20:27 180 10.0
2014-Oct-30 20:26 180 10.6
2014-Oct-30 20:17 180 10.6
2014-Oct-30 20:16 180 10.6
2014-Oct-30 20:07 180 11.1
2014-Oct-30 19:57 180 11.1
2014-Oct-30 19:56 180 11.1
2014-Oct-30 19:47 087 11.7
2014-Oct-30 19:46 087 11.7
2014-Oct-30 19:37 087 1 gusting 2 11.1
2014-Oct-30 19:36 158 11.1
2014-Oct-30 19:27 121 11.1
2014-Oct-30 19:26 121 11.1
2014-Oct-30 19:17 121 11.1
2014-Oct-30 19:07 121 10.6
2014-Oct-30 18:57 121 10.6
2014-Oct-30 18:56 121 10.6
2014-Oct-30 18:47 105 1 gusting 4 11.1
2014-Oct-30 18:46 090 11.1
2014-Oct-30 18:37 129 11.1
2014-Oct-30 18:36 129 11.1
2014-Oct-30 18:27 090 0 gusting 4 10.6
2014-Oct-30 18:26 120 11.1
2014-Oct-30 18:17 105 10.6
2014-Oct-30 18:16 105 10.6
2014-Oct-30 18:07 131 11.1
2014-Oct-30 18:06 131 11.1
2014-Oct-30 17:57 131 11.1
2014-Oct-30 17:46 069 11.7
2014-Oct-30 17:37 132 11.7
2014-Oct-30 17:36 093 11.7
2014-Oct-30 17:27 111 12.8
2014-Oct-30 17:26 111 12.8
2014-Oct-30 17:17 072 13.3
2014-Oct-30 17:16 103 13.3
2014-Oct-30 17:07 103 13.3
2014-Oct-30 17:06 103 13.3
2014-Oct-30 16:57 103 2 gusting 4 12.8
2014-Oct-30 16:47 086 13.3
2014-Oct-30 16:46 086 13.3
2014-Oct-30 16:37 086 13.3
2014-Oct-30 16:36 086 13.3
2014-Oct-30 16:27 086 13.9
2014-Oct-30 16:26 086 13.9
2014-Oct-30 16:17 100 13.9
2014-Oct-30 16:16 100 13.9
2014-Oct-30 16:07 096 14.4
2014-Oct-30 16:06 096 14.4
2014-Oct-30 15:57 084 15.0
2014-Oct-30 15:56 084 15.0
2014-Oct-30 15:47 010 15.6
2014-Oct-30 15:46 010 16.1
2014-Oct-30 15:36 278 16.1
2014-Oct-30 15:26 278 17.2
2014-Oct-30 15:16 278 17.8
2014-Oct-30 15:06 278 17.8
2014-Oct-30 14:56 278 17.2
2014-Oct-30 14:46 278 17.2
2014-Oct-30 14:36 278 17.8
2014-Oct-30 14:26 278 17.8
2014-Oct-30 14:16 278 18.3
2014-Oct-30 14:06 278 18.3
2014-Oct-30 13:56 278 18.3
2014-Oct-30 13:46 278 18.3
2014-Oct-30 13:36 278 18.9
2014-Oct-30 13:26 278 18.9
2014-Oct-30 13:16 278 18.3
2014-Oct-30 13:06 278 18.3
2014-Oct-30 12:56 278 17.8
2014-Oct-30 12:46 278 17.8
2014-Oct-30 12:36 278 20.0
2014-Oct-30 12:26 278 17.2
2014-Oct-30 12:16 271 17.2
2014-Oct-30 12:06 238 2 gusting 4 17.2
2014-Oct-30 11:56 252 17.2
2014-Oct-30 11:46 219 17.2
2014-Oct-30 11:36 193 17.2
2014-Oct-30 11:26 046 17.2
2014-Oct-30 11:16 046 16.7
2014-Oct-30 11:06 046 16.7
2014-Oct-30 10:56 046 16.1
2014-Oct-30 10:46 046 16.1
2014-Oct-30 10:36 046 16.1
2014-Oct-30 10:26 046 16.1
2014-Oct-30 10:16 046 16.1
2014-Oct-30 10:06 046 16.1
2014-Oct-30 09:56 046 15.6
2014-Oct-30 09:46 046 15.6
2014-Oct-30 09:36 046 15.6
2014-Oct-30 09:26 046 17.8
2014-Oct-30 09:16 046 17.2
2014-Oct-30 09:06 046 15.6
2014-Oct-30 08:56 046 15.0
2014-Oct-30 08:46 046 15.0
2014-Oct-30 08:36 046 15.0
2014-Oct-30 08:26 046 13.9
2014-Oct-30 08:16 046 13.9
2014-Oct-30 08:06 046 12.8
2014-Oct-30 07:56 046 11.7
2014-Oct-30 07:46 046 11.7
2014-Oct-30 07:36 046 10.6
2014-Oct-30 07:24 072 10.0
2014-Oct-30 07:14 072 8.9
2014-Oct-30 07:06 072 8.9
2014-Oct-30 06:56 072 8.3
2014-Oct-30 06:46 072 8.3
2014-Oct-30 06:36 069 8.3
2014-Oct-30 06:26 091 8.3
2014-Oct-30 06:16 079 7.8
2014-Oct-30 06:06 070 7.8
2014-Oct-30 05:56 070 7.8
2014-Oct-30 05:44 070 8.3
2014-Oct-30 05:36 070 8.3
2014-Oct-30 05:26 070 7.8
2014-Oct-30 05:16 070 7.8
2014-Oct-30 05:06 070 8.3
2014-Oct-30 04:56 070 8.3
2014-Oct-30 04:46 080 8.3
2014-Oct-30 04:36 093 8.3
2014-Oct-30 04:26 068 8.9
2014-Oct-30 04:13 073 8.9
2014-Oct-30 04:06 073 8.9
2014-Oct-30 03:53 060 8.9
2014-Oct-30 03:46 060 8.9
2014-Oct-30 03:36 060 8.9
2014-Oct-30 03:23 060 9.4
2014-Oct-30 03:16 060 9.4
2014-Oct-30 03:06 060 9.4
2014-Oct-30 02:56 021 8.9
2014-Oct-30 02:46 021 9.4
2014-Oct-30 02:36 021 9.4
2014-Oct-30 02:26 021 10.0
2014-Oct-30 02:13 021 10.0
2014-Oct-30 02:06 021 9.4
2014-Oct-30 01:56 076 8.9
2014-Oct-30 01:46 055 1 gusting 1 8.9
2014-Oct-30 01:36 077 8.9
2014-Oct-30 01:26 049 8.9
2014-Oct-30 01:13 049 9.4
2014-Oct-30 01:06 049 9.4
2014-Oct-30 00:56 049 9.4
2014-Oct-30 00:43 049 10.0
2014-Oct-30 00:33 049 10.0
2014-Oct-30 00:26 049 10.0
2014-Oct-30 00:16 049 10.0
2014-Oct-30 00:06 094 9.4
2014-Oct-29 23:55 032 0 gusting 2 8.9
2014-Oct-29 23:43 062 8.9
2014-Oct-29 23:35 112 8.3
2014-Oct-29 23:23 112 8.3
2014-Oct-29 23:15 112 8.3
2014-Oct-29 23:05 112 8.3
2014-Oct-29 22:55 112 8.3
2014-Oct-29 22:45 112 8.3
2014-Oct-29 22:35 058 8.3
2014-Oct-29 22:25 058 8.3
2014-Oct-29 22:13 066 8.3
2014-Oct-29 22:05 052 8.3
2014-Oct-29 21:52 052 8.9
2014-Oct-29 21:45 052 8.9
2014-Oct-29 21:35 139 8.9
2014-Oct-29 21:22 139 8.9
2014-Oct-29 21:15 139 8.9
2014-Oct-29 21:05 139 8.9
2014-Oct-29 20:52 139 9.4
2014-Oct-29 20:45 139 9.4
2014-Oct-29 20:35 139 9.4
2014-Oct-29 20:25 321 10.0
2014-Oct-29 20:15 321 10.0
2014-Oct-29 20:02 321 10.6
2014-Oct-29 19:55 321 10.6
2014-Oct-29 19:45 321 10.6
2014-Oct-29 19:35 321 11.1
2014-Oct-29 19:25 321 11.1
2014-Oct-29 19:15 321 11.7
2014-Oct-29 19:05 321 11.7
2014-Oct-29 18:55 321 11.7
2014-Oct-29 18:45 321 11.7
2014-Oct-29 18:32 321 11.7
2014-Oct-29 18:22 321 11.7
2014-Oct-29 18:15 321 11.7
2014-Oct-29 18:05 321 11.7
2014-Oct-29 17:45 321 12.2
2014-Oct-29 17:35 321 12.2
2014-Oct-29 17:25 321 12.2
2014-Oct-29 17:15 321 12.2
2014-Oct-29 17:05 321 12.2
2014-Oct-29 16:52 321 12.8
2014-Oct-29 16:45 321 12.8
2014-Oct-29 16:35 321 13.3
2014-Oct-29 16:22 321 13.9
2014-Oct-29 16:15 321 13.9
2014-Oct-29 16:05 321 13.9
2014-Oct-29 15:55 321 14.4
2014-Oct-29 15:45 321 15.6
2014-Oct-29 15:35 321 15.6
2014-Oct-29 15:22 321 16.7
2014-Oct-29 15:12 321 16.7
2014-Oct-29 15:05 321 16.7
2014-Oct-29 14:55 321 16.7
2014-Oct-29 14:42 321 16.7
2014-Oct-29 14:35 321 16.1
2014-Oct-29 14:25 321 16.1
2014-Oct-29 14:15 321 16.7
2014-Oct-29 14:05 321 16.7
2014-Oct-29 13:55 321 15.6
2014-Oct-29 13:45 321 15.6
2014-Oct-29 13:35 321 15.6
2014-Oct-29 13:25 321 15.6
2014-Oct-29 13:15 321 15.0
2014-Oct-29 13:05 319 15.0
2014-Oct-29 12:55 319 15.0
2014-Oct-29 12:45 319 15.0
2014-Oct-29 12:35 319 15.6
2014-Oct-29 12:25 319 15.0
2014-Oct-29 12:15 319 15.0
2014-Oct-29 12:05 319 15.6
2014-Oct-29 11:51 319 15.6
2014-Oct-29 11:45 319 15.6
2014-Oct-29 11:35 273 15.6
2014-Oct-29 11:25 233 15.6
2014-Oct-29 11:15 233 15.6
2014-Oct-29 11:05 233 15.6